SCP
0 0 0 0 0 0 0 0 0 0 0 0 0 0 0 0 0 0 0 0 0 0 0 0 0 0 0 0 0 0 0 0 0 0 0 0 0 0 0 0 0 0 0
0 0 0 0 0 0 0 0 0 0 0 0 0 0 0 0 0 0 0 0 0 0 0 0 0 0 0 0 0 0 0 0 0 0 0 0 0 0 0 0 0 0 0
0 0 0 0 0 0 0 0 0 0 0 0 0 0 0 0 0 0 0 0 0 0 0 0 0 0 0 0 0 0 0 0 0 0 0 0 0 0 0 0 0 0 0
0 0 0 0 0 0 0 0 0 0 0 0 0 0 0 0 0 0 0 0 0 0 0 0 0 0 0 0 0 0 0 0 0 0 0 0 0 0 0 0 0 0 0
0 0 0 0 0 0 0 0 0 0 0 0 0 0 0 0 0 0 0 0 0 0 0 0 0 0 0 0 0 0 0 0 0 0 0 0 0 0 0 0 0 0 0
0 0 0 0 0 0 0 0 0 0 0 0 0 0 0 0 0 0 0 0 0 0 0 0 0 0 0 0 0 0 0 0 0 0 0 0 0 0 0 0 0 0 0
0 0 0 0 0 0 0 0 0 0 0 0 0 0 0 0 0 0 0 0 0 0 0 0 0 0 0 0 0 0 0 0 0 0 0 0 0 0 0 0 0 0 0
0 0 0 0 0 0 0 0 0 0 0 0 0 0 0 0 0 0 0 0 0 0 0 0 0 0 0 0 0 0 0 0 0 0 0 0 0 0 0 0 0 0 0
0 0 0 0 0 0 0 0 0 0 0 0 0 0 0 0 0 0 0 0 0 0 0 0 0 0 0 0 0 0 0 0 0 0 0 0 0 0 0 0 0 0 0
0 0 0 0 0 0 0 0 0 0 0 0 0 0 0 0 0 0 0 0 0 0 0 0 0 0 0 0 0 0 0 0 0 0 0 0 0 0 0 0 0 0 0
0 0 0 0 0 0 0 0 0 0 0 0 0 0 0 0 0 0 0 0 0 0 0 0 0 0 0 0 0 0 0 0 0 0 0 0 0 0 0 0 0 0 0
0 0 0 0 0 0 0 0 0 0 0 0 0 0 0 0 0 0 0 0 0 0 0 0 0 0 0 0 0 0 0 0 0 0 0 0 0 0 0 0 0 0 0
0 0 0 0 0 0 0 0 0 0 0 0 0 0 0 0 0 0 0 0 0 0 0 0 0 0 0 0 0 0 0 0 0 0 0 0 0 0 0 0 0 0 0
0 0 0 0 0 0 0 0 0 0 0 0 0 0 0 0 0 0 0 0 0 0 0 0 0 0 0 0 0 0 0 0 0 0 0 0 0 0 0 0 0 0 0
0 0 0 0 0 0 0 0 0 0 0 0 0 0 0 0 0 0 0 0 0 0 0 0 0 0 0 0 0 0 0 0 0 0 0 0 0 0 0 0 0 0 0
0 0 0 0 0 0 0 0 0 0 0 0 0 0 0 0 0 0 0 0 0 0 0 0 0 0 0 0 0 0 0 0 0 0 0 0 0 0 0 0 0 0 0
0 0 0 0 0 0 0 0 0 0 0 0 0 0 0 0 0 0 0 0 0 0 0 0 0 0 0 0 0 0 0 0 0 0 0 0 0 0 0 0 0 0 0
0 0 0 0 0 0 0 0 0 0 0 0 0 0 0 0 0 0 0 0 0 0 0 0 0 0 0 0 0 0 0 0 0 0 0 0 0 0 0 0 0 0 0
1 1 1 1 1 1 0 0 0 0 0 0 0 0 0 0 0 0 0 0 0 0 0 0 0 0 0 0 0 0 0 0 0 0 0 0 0 0 0 0 0 0 0
1 1 1 1 1 1 1 0 0 0 0 0 0 0 0 0 0 0 0 0 0 0 0 0 0 0 0 0 0 0 0 0 0 0 0 0 0 0 0 0 0 0 0
1 1 1 1 1 1 1 1 1 1 0 0 0 0 0 0 0 0 0 0 0 0 0 0 0 0 0 0 0 0 0 0 0 0 0 0 0 0 0 0 0 0 0
1 1 1 1 1 1 1 1 1 1 0 0 0 0 0 0 0 0 0 0 0 0 0 0 0 0 0 0 0 0 0 0 0 0 0 0 0 0 0 0 0 0 0
1 1 1 1 1 1 1 1 1 1 0 0 0 0 0 0 0 0 0 0 0 0 0 0 0 0 0 0 0 0 0 0 0 0 0 0 0 0 0 0 0 0 0
1 1 1 1 1 1 1 1 1 1 0 0 0 0 0 0 0 0 0 0 0 0 0 0 0 0 0 0 0 0 0 0 0 0 0 0 0 0 0 0 0 0 0
1 1 1 1 1 1 1 1 1 1 0 0 0 0 0 0 0 0 0 0 0 0 0 0 0 0 0 0 0 0 0 0 0 0 0 0 0 0 0 0 0 0 0
1 1 1 1 1 1 1 1 1 0 0 0 0 0 0 0 0 0 0 0 0 0 0 0 0 0 0 0 0 0 0 0 0 0 0 0 0 0 0 0 0 0 0
Wind_Speed
5 5 10 11 11 10 10 11 11 11 10 11 10 10 11 11 11 10 10 9 9 9 8 8 8 8 8 8 8 8 9 9 9 9 9 9 10 11 11 11 11 8 13
9 8 11 11 11 10 10 10 10 10 10 10 10 10 10 10 10 10 9 9 8 8 8 8 7 7 7 7 7 7 8 8 8 9 9 8 9 10 10 11 10 8 13
11 8 10 11 11 11 10 10 10 10 10 9 9 9 9 9 9 9 8 8 7 7 7 7 7 6 6 6 6 6 7 7 7 8 7 4 5 9 11 11 11 12 12
12 8 9 12 12 11 10 10 10 9 9 9 8 8 8 8 8 8 8 7 7 7 7 6 6 6 6 5 5 5 5 6 6 6 3 3 4 9 11 12 12 12 12
10 7 9 13 12 11 11 10 10 9 9 9 8 8 7 7 7 6 7 7 6 6 6 6 6 6 5 5 5 5 4 5 5 4 2 3 3 8 10 11 12 11 12
9 7 9 13 12 11 11 10 9 9 8 8 7 7 6 6 5 5 5 6 5 5 5 5 5 5 4 4 4 4 4 4 3 2 2 2 3 8 11 11 12 12 11
9 7 8 12 12 11 10 10 9 8 8 7 6 6 6 5 5 5 5 5 4 4 4 4 3 3 3 3 3 3 3 3 2 2 2 2 3 8 11 11 12 11 11
11 7 7 11 11 11 10 10 9 8 7 6 5 6 5 5 4 4 5 4 3 3 3 2 2 2 2 2 3 2 2 3 3 3 3 3 5 8 10 11 11 11 11
10 8 5 6 7 9 9 9 8 7 6 6 5 5 5 4 4 4 4 3 3 3 2 2 1 1 0 1 1 2 2 3 2 2 3 3 5 8 10 11 11 11 10
8 7 5 5 4 4 5 8 8 7 6 5 5 5 4 4 4 3 2 2 2 2 2 2 1 1 0 0 0 2 2 2 2 2 2 4 7 9 10 10 11 11 10
7 5 5 5 4 4 4 6 6 7 6 5 4 4 3 1 0 1 1 2 2 2 3 2 1 1 1 1 1 1 2 1 2 2 2 6 9 10 10 11 11 10 10
8 7 6 6 5 4 4 3 2 3 3 2 1 2 1 1 1 1 1 2 2 2 3 3 2 2 1 0 1 1 1 2 1 2 3 9 9 10 10 11 11 11 11
10 9 7 7 6 5 3 3 2 1 1 1 2 2 1 1 1 1 0 1 2 2 1 1 1 1 1 1 0 0 1 1 1 1 3 9 9 10 10 11 11 11 11
9 8 8 7 6 5 4 3 3 2 2 2 2 2 2 1 0 0 1 1 1 1 1 1 1 1 1 1 1 1 1 1 1 1 3 8 9 10 11 11 11 10 10
9 8 8 8 6 5 4 3 3 3 3 2 2 2 2 2 1 1 1 1 1 1 1 1 1 1 1 1 1 1 1 1 2 2 2 8 9 10 10 11 11 11 11
8 8 8 8 7 6 4 3 3 3 2 2 2 2 3 2 2 1 1 0 0 1 1 1 1 1 1 1 1 1 1 1 2 3 2 4 8 9 10 10 10 10 11
8 7 8 9 7 6 5 4 3 3 3 2 2 2 3 2 2 2 1 0 1 0 1 1 0 1 1 1 1 1 1 2 2 3 3 2 3 7 9 9 9 9 10
7 7 7 8 7 6 4 4 3 3 3 2 2 2 2 3 2 2 1 1 0 0 0 1 1 1 0 0 0 1 1 1 2 2 3 2 2 3 6 9 9 9 9
8 7 6 6 7 6 4 3 3 3 2 2 1 1 2 2 3 2 1 0 0 0 1 0 1 1 1 0 1 0 0 1 1 2 2 2 2 2 2 5 8 8 8
7 6 6 5 5 4 3 3 2 2 1 1 1 1 2 2 2 2 1 0 1 1 1 1 1 1 1 1 0 1 1 0 1 1 1 2 2 2 2 3 3 5 8
6 6 6 6 5 4 3 3 2 1 1 1 1 1 2 1 2 2 1 1 1 1 0 1 1 1 0 1 2 2 2 2 1 0 0 1 1 1 2 2 2 2 3
7 6 5 6 5 5 3 3 2 2 1 1 0 1 1 1 2 2 2 2 1 1 1 1 1 1 0 1 2 2 2 3 2 1 0 0 0 0 1 2 2 2 2
7 6 6 5 5 4 4 3 2 2 2 1 1 1 1 1 2 2 2 2 1 1 1 1 1 2 1 0 1 3 2 2 2 2 1 0 0 0 0 0 1 2 3
8 6 5 5 5 4 4 4 4 3 2 1 1 0 0 1 1 1 1 1 1 1 1 1 1 1 2 0 1 0 2 3 2 1 2 1 1 0 0 0 1 1 2
6 6 5 5 4 4 3 4 4 3 2 1 1 2 1 1 1 1 1 1 1 1 1 1 1 1 2 2 1 0 0 0 1 1 1 2 2 1 1 1 1 1 2
4 4 5 6 4 4 3 3 4 4 3 3 2 1 1 1 1 1 1 1 1 1 1 1 1 1 1 2 1 1 1 1 1 1 2 2 2 2 1 1 1 2 2
Wind_Direction
154 155 131 120 115 108 101 96 93 92 89 88 87 85 83 84 85 87 87 85 86 87 91 93 93 94 96 98 102 110 119 126 130 130 131 133 137 139 136 131 130 134 135
151 151 132 123 118 111 106 102 99 96 94 93 92 90 88 88 87 87 86 84 84 86 91 92 91 95 98 99 105 116 125 131 135 135 133 138 141 140 138 135 133 139 137
143 144 133 126 121 115 110 106 104 101 99 98 96 95 93 92 90 88 86 84 84 85 88 90 90 88 90 93 103 114 122 125 131 134 133 132 140 141 142 137 133 134 136
142 142 135 132 126 121 116 111 109 108 105 103 100 100 100 97 94 91 90 88 87 88 87 88 84 81 79 87 96 110 118 126 134 137 134 134 142 142 145 140 138 137 139
138 139 141 136 131 127 122 117 114 113 111 109 106 106 107 102 98 96 95 93 91 91 89 89 83 80 76 80 87 99 114 127 134 132 124 134 142 142 144 144 143 141 141
138 142 146 139 136 131 127 123 120 116 115 116 115 115 115 114 111 107 103 102 98 94 92 90 84 77 75 75 78 90 101 115 129 131 134 142 146 149 149 149 147 145 143
140 145 148 142 140 138 135 130 127 123 120 120 120 124 127 129 127 122 118 115 110 100 98 97 85 72 62 67 69 72 88 103 118 124 132 141 148 150 150 150 149 149 149
140 143 147 147 146 144 142 138 134 130 127 123 122 124 129 135 136 131 130 133 129 119 110 109 103 84 54 50 50 52 70 105 122 129 133 143 155 153 151 152 154 152 151
137 138 140 148 148 150 147 144 141 138 136 131 126 125 124 132 145 143 137 148 158 155 148 156 158 136 57 60 33 25 65 84 106 130 143 150 159 161 160 160 158 154 152
134 141 144 146 146 149 151 150 151 148 146 141 136 134 131 129 137 146 153 161 174 177 165 167 192 213 259 215 25 40 84 88 93 126 142 163 165 165 163 162 157 154 154
140 149 151 151 147 150 154 158 158 156 155 153 153 151 145 138 183 168 191 178 192 202 205 203 222 244 246 269 313 50 86 124 125 142 156 160 161 162 162 160 159 155 158
161 167 166 162 159 156 164 153 160 162 159 156 154 153 148 166 252 224 247 226 221 225 223 225 240 250 256 307 337 34 84 141 148 160 164 163 161 160 163 165 166 163 164
167 167 168 167 163 163 158 152 168 164 159 171 170 163 154 164 275 275 272 259 256 248 249 251 267 278 237 237 320 66 133 143 159 171 164 165 163 164 167 170 171 169 169
159 165 166 166 165 168 155 163 168 169 177 189 192 172 156 160 211 234 210 226 234 246 248 243 253 255 238 221 202 153 137 147 161 163 171 174 170 169 171 172 173 175 177
158 162 168 165 164 167 156 167 166 178 180 183 174 173 163 161 179 192 206 204 228 227 221 227 239 234 223 204 177 158 155 158 160 166 172 177 177 176 176 177 176 181 186
160 161 164 165 166 163 164 170 174 175 170 166 171 172 165 163 168 173 175 194 247 229 212 192 189 177 186 171 174 172 183 172 174 171 173 184 189 186 185 185 186 188 189
158 158 161 166 163 162 168 175 166 168 162 166 180 173 168 163 164 159 156 192 262 234 165 143 139 101 104 110 156 184 196 203 177 176 173 180 187 196 196 196 197 197 194
150 153 162 164 158 162 162 166 155 157 155 168 175 171 170 166 154 142 143 199 243 91 92 114 101 88 65 92 220 225 205 199 172 163 164 171 178 194 204 204 203 202 198
151 155 158 157 161 164 159 152 141 140 148 163 162 162 158 153 146 143 149 209 140 79 61 64 95 109 95 337 253 194 180 176 148 144 154 173 183 192 196 206 207 206 202
144 149 153 148 155 155 142 122 109 110 140 137 143 157 147 151 137 123 118 98 86 78 53 55 69 82 129 187 215 23 353 44 103 123 171 175 180 197 191 189 204 209 205
137 141 151 146 151 146 144 146 142 154 159 151 154 145 146 149 136 125 124 118 87 94 127 116 106 99 52 85 71 20 358 7 34 323 195 125 151 194 181 185 194 202 206
152 151 152 153 150 152 158 156 148 144 144 151 133 78 120 124 124 131 137 142 131 108 64 80 124 118 181 94 112 90 7 350 339 323 356 101 60 83 177 185 178 185 194
156 163 158 154 144 144 135 115 98 77 60 52 39 26 5 99 117 123 137 141 140 141 170 195 159 141 170 307 113 133 138 231 300 325 333 338 1 38 308 128 173 201 195
166 162 146 143 135 133 130 133 136 137 147 184 159 146 5 48 93 118 128 141 141 143 146 178 147 144 140 153 318 105 160 166 163 302 321 306 286 240 272 127 209 199 198
158 153 146 140 135 134 137 142 145 138 147 131 103 86 61 19 34 67 105 118 119 152 168 155 136 134 149 158 165 170 24 70 137 155 268 302 315 290 240 219 208 198 195
142 143 151 146 139 137 143 142 143 141 136 118 103 103 68 16 15 23 75 84 102 149 174 182 188 178 181 174 170 164 157 167 193 176 217 250 272 280 260 242 219 219 208